EZY23WU LEMG-EGGP

Flight info

Callsign EZY23WU
Flight time N/A
Altitude 36000
Route BLN DCT MORAL DCT BEXID DCT VTB DCT SIE DCT XERMA DCT ARLUN DCT BUGIX DCT UNGAS DCT DELOG DCT NOVAN DCT TERKU DCT NOZHU/N0436F370 DCT SHIRI DCT TOJAQ DCT EPACE DCT ACCOP DCT MOCQO P16 PEPZE
Aircraft A320/M-SDE3FGHIRWY/LB1

Departure

Time 2026-05-08 04:30
Airport Málaga-Costa del Sol Airport (LEMG)

Arrival

Time N/A
Airport Liverpool John Lennon Airport (EGGP)
Time Latitude Longitude Altitude Speed Heading
2026-05-08 04:07 36.67456 -4.49208 42 ft 0 kts 331°
2026-05-08 04:18 36.67454 -4.49207 42 ft 3 kts 332°
2026-05-08 04:18 36.67430 -4.49194 41 ft 4 kts 349°
2026-05-08 04:19 36.67404 -4.49193 40 ft 4 kts 11°
2026-05-08 04:19 36.67378 -4.49203 38 ft 4 kts 28°
2026-05-08 04:19 36.67355 -4.49220 37 ft 4 kts 30°
2026-05-08 04:19 36.67334 -4.49231 38 ft 4 kts 338°
2026-05-08 04:20 36.67319 -4.49217 40 ft 2 kts 311°
2026-05-08 04:20 36.67318 -4.49215 38 ft 0 kts 311°
2026-05-08 04:23 36.67321 -4.49225 40 ft 3 kts 284°
2026-05-08 04:23 36.67301 -4.49249 42 ft 6 kts 211°
2026-05-08 04:24 36.67272 -4.49300 42 ft 9 kts 274°
2026-05-08 04:24 36.67320 -4.49374 42 ft 13 kts 311°
2026-05-08 04:24 36.67375 -4.49451 43 ft 11 kts 311°
2026-05-08 04:24 36.67422 -4.49517 42 ft 10 kts 311°
2026-05-08 04:25 36.67463 -4.49575 42 ft 8 kts 311°
2026-05-08 04:25 36.67506 -4.49635 42 ft 12 kts 311°
2026-05-08 04:25 36.67569 -4.49723 43 ft 16 kts 311°
2026-05-08 04:25 36.67652 -4.49838 43 ft 20 kts 312°
2026-05-08 04:26 36.67752 -4.49978 43 ft 22 kts 310°
2026-05-08 04:26 36.67857 -4.50126 44 ft 23 kts 311°
2026-05-08 04:26 36.67970 -4.50284 44 ft 24 kts 311°
2026-05-08 04:26 36.68078 -4.50436 44 ft 23 kts 311°
2026-05-08 04:27 36.68187 -4.50589 44 ft 24 kts 311°
2026-05-08 04:27 36.68297 -4.50743 46 ft 23 kts 311°
2026-05-08 04:27 36.68397 -4.50882 49 ft 21 kts 311°
2026-05-08 04:27 36.68469 -4.50984 52 ft 12 kts 311°
2026-05-08 04:28 36.68505 -4.51061 55 ft 10 kts 273°
2026-05-08 04:28 36.68469 -4.51122 55 ft 8 kts 201°
2026-05-08 04:28 36.68415 -4.51137 59 ft 9 kts 191°
2026-05-08 04:28 36.68348 -4.51113 58 ft 13 kts 134°
2026-05-08 04:29 36.68288 -4.51028 53 ft 21 kts 132°
2026-05-08 04:29 36.68027 -4.50662 53 ft 91 kts 131°
2026-05-08 04:29 36.67478 -4.49885 51 ft 146 kts 131°
2026-05-08 04:29 36.66717 -4.48825 297 ft 168 kts 130°
2026-05-08 04:30 36.65956 -4.47751 1040 ft 164 kts 131°
2026-05-08 04:30 36.65183 -4.46672 1553 ft 175 kts 131°
2026-05-08 04:30 36.64322 -4.45474 1844 ft 197 kts 131°
2026-05-08 04:30 36.63349 -4.44120 2150 ft 220 kts 131°
2026-05-08 04:31 36.62312 -4.42673 2862 ft 226 kts 132°
2026-05-08 04:31 36.61261 -4.41209 3680 ft 228 kts 132°
2026-05-08 04:31 36.60251 -4.39688 4514 ft 229 kts 121°
2026-05-08 04:31 36.59696 -4.37821 5299 ft 234 kts 103°
2026-05-08 04:32 36.59369 -4.35825 6056 ft 237 kts 104°
2026-05-08 04:32 36.59031 -4.33792 6766 ft 242 kts 104°
2026-05-08 04:32 36.58685 -4.31722 7456 ft 247 kts 105°
2026-05-08 04:32 36.58529 -4.29562 8125 ft 257 kts 87°
2026-05-08 04:33 36.59002 -4.27371 8696 ft 273 kts 64°
2026-05-08 04:33 36.60110 -4.25395 9296 ft 283 kts 52°
2026-05-08 04:33 36.61354 -4.23458 9986 ft 290 kts 52°
2026-05-08 04:33 36.62763 -4.21629 10600 ft 297 kts 38°
2026-05-08 04:34 36.64553 -4.20259 11000 ft 312 kts 21°
2026-05-08 04:34 36.66675 -4.19356 11204 ft 334 kts 15°
2026-05-08 04:34 36.68971 -4.18445 11387 ft 358 kts 16°
2026-05-08 04:34 36.71391 -4.17475 11812 ft 371 kts 16°
2026-05-08 04:35 36.73881 -4.16487 12408 ft 379 kts 15°
2026-05-08 04:35 36.76415 -4.15495 13036 ft 386 kts 15°
2026-05-08 04:35 36.79002 -4.14489 13604 ft 393 kts 14°
2026-05-08 04:35 36.81638 -4.13468 14153 ft 399 kts 14°
2026-05-08 04:36 36.84307 -4.12431 14724 ft 404 kts 15°
2026-05-08 04:36 36.86998 -4.11382 15324 ft 408 kts 15°
2026-05-08 04:36 36.89721 -4.10320 15925 ft 412 kts 15°
2026-05-08 04:36 36.92465 -4.09247 16567 ft 415 kts 15°
2026-05-08 04:37 36.95232 -4.08165 17212 ft 418 kts 16°
2026-05-08 04:37 36.98022 -4.07074 17810 ft 422 kts 16°
2026-05-08 04:37 37.00838 -4.05972 18331 ft 426 kts 16°
2026-05-08 04:37 37.03676 -4.04860 18818 ft 430 kts 16°
2026-05-08 04:38 37.06545 -4.03735 19325 ft 434 kts 16°
2026-05-08 04:38 37.09435 -4.02598 19815 ft 437 kts 15°
2026-05-08 04:38 37.12350 -4.01448 20303 ft 441 kts 15°
2026-05-08 04:38 37.15296 -4.00285 20793 ft 445 kts 15°
2026-05-08 04:39 37.18264 -3.99113 21316 ft 448 kts 15°
2026-05-08 04:39 37.21244 -3.97953 21842 ft 450 kts 14°
2026-05-08 04:39 37.24217 -3.96834 22326 ft 454 kts 14°
2026-05-08 04:39 37.27259 -3.95714 22789 ft 458 kts 13°
2026-05-08 04:40 37.30324 -3.94593 23286 ft 461 kts 13°
2026-05-08 04:40 37.33419 -3.93458 23708 ft 465 kts 13°
2026-05-08 04:40 37.36534 -3.92304 24090 ft 468 kts 14°
2026-05-08 04:40 37.39664 -3.91137 24480 ft 471 kts 14°
2026-05-08 04:41 37.42810 -3.89958 24890 ft 472 kts 14°
2026-05-08 04:41 37.45952 -3.88773 25323 ft 473 kts 14°
2026-05-08 04:41 37.49113 -3.87575 25706 ft 475 kts 15°
2026-05-08 04:41 37.52286 -3.86373 26066 ft 477 kts 15°
2026-05-08 04:42 37.55478 -3.85170 26396 ft 480 kts 14°
2026-05-08 04:42 37.58688 -3.83965 26730 ft 483 kts 14°
2026-05-08 04:42 37.61914 -3.82751 27082 ft 485 kts 15°
2026-05-08 04:42 37.65154 -3.81527 27413 ft 487 kts 14°
2026-05-08 04:43 37.68392 -3.80303 27853 ft 486 kts 14°
2026-05-08 04:43 37.71640 -3.79075 28218 ft 488 kts 14°
2026-05-08 04:43 37.73796 -3.78261 28442 ft 489 kts 14°
2026-05-08 04:43 37.78167 -3.76611 28865 ft 491 kts 14°
2026-05-08 04:44 37.81447 -3.75368 29168 ft 493 kts 15°
2026-05-08 04:44 37.83629 -3.74538 29374 ft 495 kts 15°
2026-05-08 04:44 37.86926 -3.73280 29665 ft 497 kts 15°
2026-05-08 04:44 37.90242 -3.72015 29967 ft 499 kts 15°
2026-05-08 04:45 37.93568 -3.70749 30198 ft 500 kts 15°
2026-05-08 04:45 37.96910 -3.69478 30423 ft 503 kts 15°
2026-05-08 04:45 38.00272 -3.68200 30639 ft 505 kts 15°
2026-05-08 04:45 38.03633 -3.66921 30845 ft 507 kts 14°
2026-05-08 04:46 38.07025 -3.65629 31052 ft 509 kts 14°
2026-05-08 04:46 38.10417 -3.64336 31346 ft 508 kts 14°
2026-05-08 04:46 38.13805 -3.63080 31648 ft 507 kts 11°
2026-05-08 04:46 38.17260 -3.62290 31936 ft 503 kts
2026-05-08 04:47 38.20748 -3.61944 32220 ft 502 kts
2026-05-08 04:47 38.24237 -3.61619 32511 ft 502 kts
2026-05-08 04:47 38.27716 -3.61288 32796 ft 502 kts
2026-05-08 04:47 38.31203 -3.60952 33076 ft 502 kts
2026-05-08 04:48 38.34684 -3.60612 33357 ft 503 kts
2026-05-08 04:48 38.38171 -3.60269 33648 ft 503 kts
2026-05-08 04:48 38.41663 -3.59927 33923 ft 503 kts
2026-05-08 04:48 38.45149 -3.59587 34177 ft 502 kts 360°
2026-05-08 04:49 38.48632 -3.59246 34434 ft 502 kts 360°
2026-05-08 04:49 38.52117 -3.58904 34672 ft 502 kts 360°
2026-05-08 04:49 38.55597 -3.58565 34913 ft 501 kts 359°
2026-05-08 04:49 38.59074 -3.58228 35128 ft 501 kts 359°
2026-05-08 04:50 38.62553 -3.57890 35373 ft 500 kts 359°
2026-05-08 04:50 38.66021 -3.57555 35613 ft 499 kts 359°
2026-05-08 04:50 38.69478 -3.57220 35825 ft 499 kts 359°
2026-05-08 04:50 38.72943 -3.56882 35918 ft 498 kts 359°
2026-05-08 04:51 38.79821 -3.56202 35931 ft 494 kts 359°
2026-05-08 04:51 38.86671 -3.55528 35934 ft 493 kts 359°
2026-05-08 04:52 38.93470 -3.54867 35928 ft 493 kts 359°
2026-05-08 04:52 39.00304 -3.54197 35928 ft 493 kts 359°
2026-05-08 04:53 39.07141 -3.53515 35937 ft 493 kts 359°
2026-05-08 04:53 39.13975 -3.52823 35935 ft 492 kts 359°
2026-05-08 04:54 39.20804 -3.52143 35932 ft 492 kts 359°
2026-05-08 04:54 39.27632 -3.51466 35933 ft 492 kts 359°
2026-05-08 04:55 39.34452 -3.50779 35954 ft 491 kts 359°
2026-05-08 04:55 39.41257 -3.50094 35957 ft 490 kts 359°
2026-05-08 04:56 39.48042 -3.49418 35953 ft 489 kts 359°
2026-05-08 04:56 39.54817 -3.48743 35971 ft 488 kts 360°
2026-05-08 04:57 39.61582 -3.48063 35958 ft 487 kts 359°
2026-05-08 04:57 39.68328 -3.47383 35949 ft 486 kts 360°
2026-05-08 04:58 39.75075 -3.46699 35942 ft 486 kts 359°
2026-05-08 04:58 39.81772 -3.46774 35949 ft 478 kts 349°
2026-05-08 04:59 39.88405 -3.47458 35942 ft 478 kts 350°
2026-05-08 04:59 39.95037 -3.48119 35938 ft 478 kts 350°
2026-05-08 05:00 40.01656 -3.48791 35947 ft 477 kts 350°
2026-05-08 05:00 40.08266 -3.49455 35968 ft 476 kts 350°
2026-05-08 05:01 40.14862 -3.50117 35974 ft 475 kts 350°
2026-05-08 05:01 40.21403 -3.50777 35985 ft 474 kts 350°
2026-05-08 05:02 40.27976 -3.51449 35986 ft 473 kts 350°
2026-05-08 05:02 40.34539 -3.52125 35986 ft 473 kts 350°
2026-05-08 05:03 40.41087 -3.52799 35987 ft 472 kts 350°
2026-05-08 05:03 40.47634 -3.53473 35996 ft 471 kts 351°
2026-05-08 05:04 40.54168 -3.54136 35996 ft 470 kts 351°
2026-05-08 05:04 40.60690 -3.54803 35986 ft 470 kts 351°
2026-05-08 05:05 40.67203 -3.55483 35974 ft 469 kts 350°
2026-05-08 05:05 40.73705 -3.56161 35963 ft 469 kts 351°
2026-05-08 05:06 40.80214 -3.56833 35952 ft 469 kts 351°
2026-05-08 05:06 40.86723 -3.57498 35973 ft 469 kts 351°
2026-05-08 05:07 40.93234 -3.58168 35946 ft 469 kts 352°
2026-05-08 05:07 40.99702 -3.58847 35942 ft 470 kts 352°
2026-05-08 05:08 41.06219 -3.59534 35922 ft 470 kts 352°
2026-05-08 05:08 41.12732 -3.60211 35936 ft 469 kts 352°
2026-05-08 05:09 41.19260 -3.60746 35930 ft 470 kts 354°
2026-05-08 05:09 41.25808 -3.60874 35924 ft 471 kts 356°
2026-05-08 05:10 41.35618 -3.60952 35931 ft 470 kts 355°
2026-05-08 05:11 41.42148 -3.61116 35930 ft 469 kts 355°
2026-05-08 05:11 41.48674 -3.61307 35927 ft 469 kts 355°
2026-05-08 05:12 41.55192 -3.61436 35940 ft 468 kts 356°
2026-05-08 05:12 41.61706 -3.61411 35937 ft 468 kts 357°
2026-05-08 05:13 41.68215 -3.61360 35942 ft 467 kts 356°
2026-05-08 05:13 41.74717 -3.61347 35948 ft 467 kts 356°
2026-05-08 05:14 41.81206 -3.61360 35942 ft 466 kts 356°
2026-05-08 05:14 41.87688 -3.61365 35937 ft 466 kts 356°
2026-05-08 05:15 41.94174 -3.61362 35953 ft 466 kts 356°
2026-05-08 05:15 42.00649 -3.61359 35950 ft 465 kts 356°
2026-05-08 05:16 42.07106 -3.61521 35945 ft 463 kts 354°
2026-05-08 05:16 42.13535 -3.61990 35939 ft 462 kts 353°
2026-05-08 05:17 42.19957 -3.62510 35935 ft 462 kts 353°
2026-05-08 05:17 42.26382 -3.62954 35927 ft 462 kts 353°
2026-05-08 05:18 42.32802 -3.63349 35923 ft 462 kts 354°
2026-05-08 05:18 42.39165 -3.64181 35932 ft 458 kts 347°
2026-05-08 05:19 42.45461 -3.65435 35934 ft 457 kts 347°
2026-05-08 05:19 42.51741 -3.66696 35940 ft 456 kts 347°
2026-05-08 05:20 42.57974 -3.67938 35955 ft 456 kts 347°
2026-05-08 05:20 42.64241 -3.69185 35961 ft 454 kts 347°
2026-05-08 05:21 42.70492 -3.70419 35962 ft 454 kts 348°
2026-05-08 05:21 42.76758 -3.71498 35954 ft 454 kts 349°
2026-05-08 05:22 42.83035 -3.72507 35943 ft 454 kts 349°
2026-05-08 05:22 42.89296 -3.73552 35937 ft 453 kts 348°
2026-05-08 05:23 42.95553 -3.74637 35935 ft 453 kts 348°
2026-05-08 05:23 43.01809 -3.75728 35932 ft 453 kts 348°
2026-05-08 05:24 43.08061 -3.76807 35920 ft 453 kts 348°
2026-05-08 05:24 43.14307 -3.77880 35894 ft 452 kts 348°
2026-05-08 05:25 43.20551 -3.78953 35898 ft 452 kts 348°
2026-05-08 05:25 43.26778 -3.80034 35885 ft 451 kts 348°
2026-05-08 05:26 43.32992 -3.81109 35873 ft 450 kts 348°
2026-05-08 05:26 43.39202 -3.82187 35887 ft 450 kts 348°
2026-05-08 05:27 43.45411 -3.83272 35866 ft 450 kts 348°
2026-05-08 05:27 43.51626 -3.84357 35861 ft 450 kts 348°
2026-05-08 05:28 43.57839 -3.85440 35864 ft 450 kts 348°
2026-05-08 05:28 43.64050 -3.86530 35862 ft 450 kts 348°
2026-05-08 05:29 43.70215 -3.87613 35861 ft 449 kts 348°
2026-05-08 05:29 43.76418 -3.88704 35856 ft 449 kts 348°
2026-05-08 05:30 43.82612 -3.89803 35871 ft 448 kts 348°
2026-05-08 05:30 43.88796 -3.90895 35868 ft 448 kts 348°
2026-05-08 05:31 43.94979 -3.91983 35869 ft 448 kts 348°
2026-05-08 05:31 44.01152 -3.93077 35880 ft 447 kts 348°
2026-05-08 05:32 44.07305 -3.94176 35882 ft 445 kts 348°
2026-05-08 05:32 44.13450 -3.95264 35878 ft 445 kts 348°
2026-05-08 05:33 44.19590 -3.96355 35895 ft 444 kts 348°
2026-05-08 05:33 44.24678 -3.97261 35893 ft 443 kts 348°
2026-05-08 05:34 44.30788 -3.98360 35883 ft 443 kts 349°
2026-05-08 05:34 44.36976 -3.98184 35879 ft 448 kts
2026-05-08 05:35 44.43180 -3.97308 35882 ft 448 kts
2026-05-08 05:35 44.49372 -3.96445 35878 ft 447 kts
2026-05-08 05:36 44.55563 -3.95577 35892 ft 447 kts
2026-05-08 05:36 44.61756 -3.94703 35888 ft 447 kts
2026-05-08 05:37 44.67936 -3.93832 35888 ft 446 kts
2026-05-08 05:37 44.74109 -3.92959 35884 ft 446 kts
2026-05-08 05:38 44.80285 -3.92083 35879 ft 446 kts
2026-05-08 05:38 44.86455 -3.91202 35877 ft 446 kts
2026-05-08 05:39 44.92626 -3.90325 35875 ft 446 kts
2026-05-08 05:39 44.98756 -3.89453 35888 ft 445 kts
2026-05-08 05:40 45.04967 -3.88560 35888 ft 445 kts
2026-05-08 05:40 45.11127 -3.87672 35891 ft 445 kts
2026-05-08 05:41 45.17290 -3.86786 35897 ft 445 kts
2026-05-08 05:41 45.23409 -3.85910 35898 ft 445 kts
2026-05-08 05:42 45.29558 -3.85015 35902 ft 444 kts
2026-05-08 05:42 45.35695 -3.84123 35920 ft 443 kts
2026-05-08 05:43 45.41829 -3.83245 35917 ft 442 kts
2026-05-08 05:43 45.47947 -3.82356 35915 ft 442 kts
2026-05-08 05:44 45.54068 -3.81461 35922 ft 442 kts
2026-05-08 05:44 45.60183 -3.80566 35922 ft 441 kts
2026-05-08 05:45 45.66293 -3.79684 35919 ft 441 kts
2026-05-08 05:45 45.72395 -3.78801 35933 ft 441 kts
2026-05-08 05:46 45.78498 -3.77896 35929 ft 440 kts
2026-05-08 05:46 45.84590 -3.76994 35930 ft 440 kts
2026-05-08 05:47 45.90685 -3.76086 35925 ft 440 kts
2026-05-08 05:47 45.96769 -3.75190 35941 ft 440 kts
2026-05-08 05:48 46.02856 -3.74290 35939 ft 439 kts
2026-05-08 05:48 46.08937 -3.73386 35934 ft 439 kts
2026-05-08 05:49 46.15013 -3.72480 35946 ft 439 kts
2026-05-08 05:49 46.21087 -3.71579 35945 ft 439 kts
2026-05-08 05:50 46.27159 -3.70670 35949 ft 439 kts
2026-05-08 05:50 46.33234 -3.69785 35952 ft 438 kts 360°
2026-05-08 05:51 46.39259 -3.69370 35956 ft 435 kts 356°
2026-05-08 05:51 46.45349 -3.69234 35945 ft 435 kts 356°
2026-05-08 05:52 46.51358 -3.69048 35960 ft 435 kts 356°
2026-05-08 05:52 46.57453 -3.68764 35956 ft 435 kts 357°
2026-05-08 05:53 46.63464 -3.68444 35956 ft 435 kts 357°
2026-05-08 05:53 46.69513 -3.68152 35958 ft 435 kts 357°
2026-05-08 05:54 46.75558 -3.67876 35955 ft 435 kts 357°
2026-05-08 05:54 46.81606 -3.67591 35954 ft 435 kts 357°
2026-05-08 05:55 46.87655 -3.67296 35952 ft 435 kts 357°
2026-05-08 05:55 46.93697 -3.67007 35986 ft 434 kts 357°
2026-05-08 05:56 46.99723 -3.66720 35982 ft 433 kts 357°
2026-05-08 05:56 47.05743 -3.66427 35980 ft 432 kts 357°
2026-05-08 05:57 47.11750 -3.66142 35975 ft 432 kts 357°
2026-05-08 05:57 47.17754 -3.65859 35981 ft 432 kts 357°
2026-05-08 05:58 47.23752 -3.65564 35974 ft 431 kts 357°
2026-05-08 05:58 47.29751 -3.65265 35972 ft 431 kts 357°
2026-05-08 05:59 47.35743 -3.64978 35987 ft 431 kts 357°
2026-05-08 05:59 47.41732 -3.64683 35982 ft 430 kts 357°
2026-05-08 06:00 47.47717 -3.64397 35978 ft 430 kts 356°
2026-05-08 06:00 47.53695 -3.64109 35998 ft 430 kts 357°
2026-05-08 06:01 47.59668 -3.63808 35996 ft 429 kts 357°
2026-05-08 06:01 47.65631 -3.63504 35990 ft 429 kts 356°
2026-05-08 06:02 47.71596 -3.63217 35992 ft 428 kts 356°
2026-05-08 06:02 47.77512 -3.62933 35994 ft 428 kts 356°
2026-05-08 06:03 47.83504 -3.62635 36002 ft 428 kts 356°
2026-05-08 06:03 47.89412 -3.62342 35997 ft 428 kts 356°
2026-05-08 06:04 47.95363 -3.62045 35980 ft 428 kts 356°
2026-05-08 06:04 48.01308 -3.61748 35998 ft 427 kts 356°
2026-05-08 06:05 48.07206 -3.62033 35991 ft 424 kts 351°
2026-05-08 06:05 48.13096 -3.62542 35993 ft 424 kts 351°
2026-05-08 06:06 48.18978 -3.63056 36006 ft 424 kts 351°
2026-05-08 06:06 48.24865 -3.63561 36000 ft 424 kts 352°
2026-05-08 06:07 48.30756 -3.64067 36000 ft 424 kts 351°
2026-05-08 06:07 48.36642 -3.64578 36001 ft 424 kts 352°
2026-05-08 06:08 48.42531 -3.65086 36018 ft 424 kts 351°
2026-05-08 06:08 48.48417 -3.65608 36014 ft 423 kts 351°
2026-05-08 06:09 48.54300 -3.66119 36023 ft 423 kts 351°
2026-05-08 06:09 48.60179 -3.66630 36042 ft 423 kts 351°
2026-05-08 06:10 48.66060 -3.67153 36037 ft 423 kts 351°
2026-05-08 06:10 48.71939 -3.67670 36035 ft 423 kts 351°
2026-05-08 06:11 48.77821 -3.68191 36030 ft 423 kts 351°
2026-05-08 06:11 48.83695 -3.68715 36027 ft 423 kts 351°
2026-05-08 06:12 48.89578 -3.69237 36024 ft 423 kts 351°
2026-05-08 06:12 48.95456 -3.69759 36020 ft 423 kts 351°
2026-05-08 06:13 49.01335 -3.70281 36017 ft 423 kts 351°
2026-05-08 06:13 49.07215 -3.70805 36026 ft 423 kts 351°
2026-05-08 06:14 49.13096 -3.71332 36023 ft 423 kts 351°
2026-05-08 06:14 49.18972 -3.71864 36021 ft 423 kts 351°
2026-05-08 06:15 49.24847 -3.72396 36040 ft 423 kts 351°
2026-05-08 06:15 49.30717 -3.72928 36035 ft 422 kts 351°
2026-05-08 06:16 49.36588 -3.73458 36027 ft 422 kts 351°
2026-05-08 06:16 49.42415 -3.73987 36023 ft 422 kts 351°
2026-05-08 06:17 49.51251 -3.74796 36029 ft 422 kts 351°
2026-05-08 06:17 49.57076 -3.75323 36026 ft 422 kts 351°
2026-05-08 06:18 49.62943 -3.75854 36020 ft 422 kts 351°
2026-05-08 06:18 49.68803 -3.76385 36036 ft 423 kts 353°
2026-05-08 06:19 49.74722 -3.75849 36032 ft 427 kts 359°
2026-05-08 06:19 49.79646 -3.75260 36029 ft 427 kts 359°
2026-05-08 06:20 49.85565 -3.74562 36023 ft 427 kts 359°
2026-05-08 06:20 49.91488 -3.73868 36039 ft 427 kts 359°
2026-05-08 06:21 49.97412 -3.73161 36033 ft 427 kts 359°
2026-05-08 06:21 50.03331 -3.72455 36032 ft 427 kts 359°
2026-05-08 06:22 50.09255 -3.71743 36030 ft 427 kts 359°
2026-05-08 06:22 50.15175 -3.71039 36048 ft 426 kts 359°
2026-05-08 06:23 50.21091 -3.70334 36037 ft 426 kts 359°
2026-05-08 06:23 50.27001 -3.69622 36036 ft 426 kts 359°
2026-05-08 06:24 50.32914 -3.68913 36032 ft 426 kts 359°
2026-05-08 06:24 50.38820 -3.68206 36052 ft 425 kts 359°
2026-05-08 06:25 50.44710 -3.67389 36048 ft 425 kts
2026-05-08 06:25 50.50585 -3.66249 36045 ft 425 kts
2026-05-08 06:26 50.56448 -3.65029 36037 ft 425 kts
2026-05-08 06:26 50.62307 -3.63874 36049 ft 424 kts
2026-05-08 06:27 50.68170 -3.62767 36047 ft 424 kts
2026-05-08 06:27 50.74028 -3.61662 36041 ft 424 kts
2026-05-08 06:28 50.79890 -3.60538 36029 ft 424 kts
2026-05-08 06:28 50.85745 -3.59417 36046 ft 424 kts
2026-05-08 06:29 50.91605 -3.58294 36036 ft 424 kts
2026-05-08 06:29 50.97458 -3.57154 36028 ft 424 kts
2026-05-08 06:30 51.03316 -3.56004 36031 ft 424 kts
2026-05-08 06:30 51.09172 -3.54867 36040 ft 424 kts
2026-05-08 06:31 51.15027 -3.53719 36031 ft 424 kts
2026-05-08 06:31 51.20882 -3.52567 36035 ft 424 kts
2026-05-08 06:32 51.26738 -3.51412 36033 ft 424 kts
2026-05-08 06:32 51.32599 -3.50265 36039 ft 424 kts
2026-05-08 06:33 51.38457 -3.49124 36058 ft 424 kts
2026-05-08 06:33 51.44319 -3.47976 36054 ft 424 kts
2026-05-08 06:34 51.50179 -3.46809 36051 ft 424 kts
2026-05-08 06:34 51.56043 -3.45649 36056 ft 425 kts
2026-05-08 06:35 51.58980 -3.45068 35792 ft 426 kts
2026-05-08 06:35 51.61917 -3.44481 35265 ft 423 kts
2026-05-08 06:35 51.64819 -3.43895 34755 ft 419 kts
2026-05-08 06:35 51.67702 -3.43316 34257 ft 415 kts
2026-05-08 06:36 51.70557 -3.42745 33701 ft 412 kts
2026-05-08 06:36 51.73389 -3.42179 33218 ft 407 kts
2026-05-08 06:36 51.76183 -3.41621 32750 ft 402 kts
2026-05-08 06:36 51.78940 -3.41069 32250 ft 399 kts
2026-05-08 06:37 51.81680 -3.40516 31768 ft 395 kts
2026-05-08 06:37 51.84393 -3.39967 31312 ft 391 kts
2026-05-08 06:37 51.87078 -3.39426 30851 ft 387 kts
2026-05-08 06:37 51.89739 -3.38888 30407 ft 384 kts
2026-05-08 06:38 51.92379 -3.38354 29927 ft 380 kts
2026-05-08 06:38 51.94993 -3.37939 29502 ft 374 kts
2026-05-08 06:38 51.97571 -3.37697 29096 ft 369 kts 359°
2026-05-08 06:38 52.00120 -3.37555 28707 ft 364 kts 358°
2026-05-08 06:39 52.02634 -3.37444 28310 ft 359 kts 359°
2026-05-08 06:39 52.05118 -3.37323 27934 ft 355 kts 359°
2026-05-08 06:39 52.07575 -3.37185 27544 ft 351 kts 359°
2026-05-08 06:39 52.10001 -3.37034 27162 ft 347 kts 359°
2026-05-08 06:40 52.12396 -3.36867 26773 ft 343 kts 360°
2026-05-08 06:40 52.14775 -3.36688 26389 ft 341 kts
2026-05-08 06:40 52.17138 -3.36510 26005 ft 340 kts
2026-05-08 06:40 52.19497 -3.36337 25601 ft 339 kts
2026-05-08 06:41 52.21850 -3.36167 25207 ft 338 kts
2026-05-08 06:41 52.24194 -3.35994 24966 ft 336 kts
2026-05-08 06:41 52.26545 -3.35822 24752 ft 340 kts
2026-05-08 06:41 52.28908 -3.35651 24335 ft 340 kts
2026-05-08 06:42 52.31270 -3.35478 23897 ft 340 kts
2026-05-08 06:42 52.33631 -3.35304 23437 ft 340 kts
2026-05-08 06:42 52.35992 -3.35129 22973 ft 339 kts
2026-05-08 06:42 52.38313 -3.34960 22547 ft 337 kts
2026-05-08 06:43 52.40651 -3.34790 22124 ft 336 kts
2026-05-08 06:43 52.42984 -3.34620 21695 ft 335 kts
2026-05-08 06:43 52.45309 -3.34450 21285 ft 334 kts
2026-05-08 06:43 52.47629 -3.34276 20871 ft 333 kts
2026-05-08 06:44 52.49945 -3.34100 20475 ft 333 kts
2026-05-08 06:44 52.52290 -3.33927 20060 ft 333 kts
2026-05-08 06:44 52.54569 -3.33760 19663 ft 333 kts
2026-05-08 06:44 52.56882 -3.33588 19260 ft 332 kts
2026-05-08 06:45 52.59194 -3.33420 18860 ft 332 kts
2026-05-08 06:45 52.61505 -3.33245 18457 ft 333 kts
2026-05-08 06:45 52.63793 -3.32609 18014 ft 335 kts 15°
2026-05-08 06:45 52.66008 -3.31352 17520 ft 338 kts 19°
2026-05-08 06:46 52.68221 -3.30026 17023 ft 340 kts 19°
2026-05-08 06:46 52.70450 -3.28693 16539 ft 341 kts 19°
2026-05-08 06:46 52.72687 -3.27353 16051 ft 343 kts 19°
2026-05-08 06:46 52.74938 -3.26004 15530 ft 345 kts 19°
2026-05-08 06:47 52.77227 -3.24635 15045 ft 346 kts 19°
2026-05-08 06:47 52.79455 -3.23299 14667 ft 344 kts 19°
2026-05-08 06:47 52.81729 -3.21935 14113 ft 340 kts 20°
2026-05-08 06:47 52.83902 -3.20632 13522 ft 332 kts 19°
2026-05-08 06:48 52.86026 -3.19357 13041 ft 320 kts 19°
2026-05-08 06:48 52.88098 -3.18120 12582 ft 312 kts 18°
2026-05-08 06:48 52.90196 -3.17348 12141 ft 308 kts
2026-05-08 06:48 52.92337 -3.17155 11699 ft 308 kts
2026-05-08 06:49 52.94480 -3.16993 11251 ft 310 kts
2026-05-08 06:49 52.96635 -3.16827 10808 ft 310 kts
2026-05-08 06:49 52.98798 -3.16661 10360 ft 311 kts
2026-05-08 06:49 53.00932 -3.16494 10174 ft 303 kts
2026-05-08 06:50 53.03025 -3.16327 9819 ft 301 kts
2026-05-08 06:50 53.05104 -3.16159 9267 ft 296 kts
2026-05-08 06:50 53.07155 -3.15994 8606 ft 292 kts
2026-05-08 06:50 53.09173 -3.15830 8159 ft 289 kts
2026-05-08 06:51 53.11173 -3.15671 7734 ft 287 kts
2026-05-08 06:51 53.13151 -3.15514 7413 ft 277 kts
2026-05-08 06:51 53.14988 -3.15367 7346 ft 252 kts
2026-05-08 06:51 53.16668 -3.15234 7280 ft 233 kts
2026-05-08 06:52 53.18313 -3.15108 7198 ft 240 kts
2026-05-08 06:52 53.19983 -3.14978 7087 ft 241 kts
2026-05-08 06:52 53.21655 -3.14815 6745 ft 241 kts
2026-05-08 06:52 53.23317 -3.14637 6306 ft 237 kts
2026-05-08 06:53 53.24944 -3.14458 5916 ft 232 kts
2026-05-08 06:53 53.26534 -3.14281 5551 ft 227 kts
2026-05-08 06:53 53.28091 -3.14132 5171 ft 223 kts
2026-05-08 06:53 53.29606 -3.13759 4790 ft 219 kts 23°
2026-05-08 06:54 53.30744 -3.12213 4468 ft 210 kts 55°
2026-05-08 06:54 53.31597 -3.10245 4168 ft 206 kts 57°
2026-05-08 06:54 53.32214 -3.08157 3833 ft 196 kts 79°
2026-05-08 06:54 53.32373 -3.05967 3577 ft 183 kts 89°
2026-05-08 06:55 53.32437 -3.03933 3424 ft 167 kts 101°
2026-05-08 06:55 53.31935 -3.02376 3218 ft 148 kts 150°
2026-05-08 06:55 53.31017 -3.01873 3079 ft 135 kts 175°
2026-05-08 06:55 53.30088 -3.01751 2830 ft 134 kts 180°
2026-05-08 06:56 53.29220 -3.02166 2493 ft 134 kts 225°
2026-05-08 06:56 53.28792 -3.03542 2256 ft 134 kts 254°
2026-05-08 06:56 53.28680 -3.05144 1956 ft 144 kts 264°
2026-05-08 06:56 53.28570 -3.06890 1949 ft 156 kts 256°
2026-05-08 06:57 53.28307 -3.08675 2008 ft 159 kts 257°
2026-05-08 06:57 53.28506 -3.10478 2012 ft 165 kts 302°
2026-05-08 06:57 53.29451 -3.11537 2026 ft 170 kts 349°
2026-05-08 06:57 53.30619 -3.11299 2047 ft 173 kts 21°
2026-05-08 06:58 53.31602 -3.10195 2036 ft 171 kts 49°
2026-05-08 06:58 53.32191 -3.08501 2040 ft 169 kts 76°
2026-05-08 06:58 53.32341 -3.06644 2022 ft 154 kts 88°
2026-05-08 06:58 53.32426 -3.04888 2037 ft 153 kts 88°
2026-05-08 06:59 53.32512 -3.03083 1985 ft 157 kts 88°
2026-05-08 06:59 53.32598 -3.01278 1844 ft 151 kts 88°
2026-05-08 06:59 53.32680 -2.99571 1642 ft 144 kts 88°
2026-05-08 06:59 53.32758 -2.97920 1454 ft 140 kts 88°
2026-05-08 07:00 53.32835 -2.96299 1259 ft 139 kts 88°
2026-05-08 07:00 53.32910 -2.94696 1074 ft 138 kts 88°
2026-05-08 07:00 53.32985 -2.93109 879 ft 136 kts 88°
2026-05-08 07:00 53.33058 -2.91541 688 ft 135 kts 88°
2026-05-08 07:01 53.33131 -2.89981 512 ft 134 kts 88°